EN

Hourly Weather Altinopolis

Today, 23 January, Saturday

Time Temperature Precipitation Wind Pressure Humidity
00:00 +19°C° 0 mm 1 mps 686 mmHg 82%
01:00 +19°C° 0 mm 1 mps 686 mmHg 83%
02:00 +19°C° 0 mm 1 mps 686 mmHg 83%
03:00 +19°C° 0 mm 1 mps 686 mmHg 84%
04:00 +19°C° 0 mm 1 mps 686 mmHg 86%
05:00 +18°C° 0 mm 1 mps 686 mmHg 88%
06:00 +17°C° 0 mm 2 mps 686 mmHg 89%
07:00 +19°C° 0 mm 2 mps 687 mmHg 83%
08:00 +21°C° 0 mm 3 mps 687 mmHg 77%
09:00 +23°C° 0 mm 4 mps 688 mmHg 71%
10:00 +26°C° 0 mm 3 mps 688 mmHg 67%
11:00 +27°C° 0 mm 3 mps 688 mmHg 64%
12:00 +28°C° 0 mm 3 mps 688 mmHg 60%
13:00 +28°C° 0.2 mm 3 mps 687 mmHg 60%
14:00 +28°C° 0.2 mm 3 mps 686 mmHg 60%
15:00 +29°C° 0.2 mm 3 mps 686 mmHg 60%
16:00 +28°C° 0.2 mm 2 mps 685 mmHg 67%
17:00 +26°C° 0.2 mm 2 mps 685 mmHg 73%
18:00 +25°C° 0.2 mm 2 mps 685 mmHg 80%
19:00 +24°C° 0.3 mm 2 mps 685 mmHg 84%
20:00 +21°C° 0.3 mm 2 mps 685 mmHg 88%
21:00 +20°C° 0.3 mm 2 mps 685 mmHg 91%
22:00 +20°C° 0 mm 1 mps 685 mmHg 91%
23:00 +20°C° 0 mm 1 mps 686 mmHg 91%

Tomorrow, 24 January, Sunday

Time Temperature Precipitation Wind Pressure Humidity
00:00 +20°C° 0 mm 1 mps 686 mmHg 92%
01:00 +19°C° 0 mm 1 mps 685 mmHg 92%
02:00 +18°C° 0 mm 2 mps 685 mmHg 93%
03:00 +18°C° 0 mm 2 mps 684 mmHg 93%
04:00 +18°C° 0 mm 2 mps 685 mmHg 93%
05:00 +17°C° 0 mm 2 mps 685 mmHg 93%
06:00 +17°C° 0 mm 3 mps 685 mmHg 93%
07:00 +19°C° 0 mm 3 mps 685 mmHg 87%
08:00 +21°C° 0 mm 4 mps 686 mmHg 80%
09:00 +23°C° 0 mm 4 mps 687 mmHg 74%
10:00 +25°C° 0 mm 4 mps 687 mmHg 69%
11:00 +27°C° 0 mm 3 mps 687 mmHg 65%
12:00 +28°C° 0 mm 3 mps 687 mmHg 60%
13:00 +28°C° 0.2 mm 2 mps 686 mmHg 60%
14:00 +28°C° 0.2 mm 2 mps 685 mmHg 59%
15:00 +28°C° 0.2 mm 2 mps 685 mmHg 59%
16:00 +27°C° 0.4 mm 2 mps 684 mmHg 67%
17:00 +26°C° 0.4 mm 2 mps 684 mmHg 74%
18:00 +25°C° 0.4 mm 1 mps 683 mmHg 82%
19:00 +24°C° 0.1 mm 1 mps 684 mmHg 84%
20:00 +22°C° 0.1 mm 1 mps 684 mmHg 86%
21:00 +21°C° 0.1 mm 1 mps 684 mmHg 88%
22:00 +20°C° 0 mm 1 mps 684 mmHg 88%
23:00 +20°C° 0 mm 1 mps 684 mmHg 88%

Day after tomorrow, 25 January, Monday

Time Temperature Precipitation Wind Pressure Humidity
00:00 +20°C° 0 mm 1 mps 684 mmHg 88%
01:00 +18°C° 0 mm 2 mps 684 mmHg 89%
02:00 +18°C° 0 mm 2 mps 683 mmHg 89%
03:00 +18°C° 0 mm 2 mps 683 mmHg 90%
04:00 +17°C° 0 mm 2 mps 683 mmHg 91%
05:00 +17°C° 0 mm 2 mps 683 mmHg 92%
06:00 +17°C° 0 mm 2 mps 684 mmHg 92%
07:00 +19°C° 0 mm 2 mps 684 mmHg 86%
08:00 +21°C° 0 mm 3 mps 685 mmHg 80%
09:00 +25°C° 0 mm 3 mps 686 mmHg 74%
10:00 +26°C° 0 mm 3 mps 686 mmHg 68%
11:00 +28°C° 0 mm 3 mps 686 mmHg 63%
12:00 +29°C° 0 mm 3 mps 686 mmHg 57%
13:00 +28°C° 0.8 mm 3 mps 685 mmHg 62%
14:00 +28°C° 0.8 mm 2 mps 684 mmHg 67%
15:00 +27°C° 0.8 mm 2 mps 683 mmHg 73%
16:00 +26°C° 1 mm 2 mps 683 mmHg 77%
17:00 +26°C° 1 mm 2 mps 683 mmHg 80%
18:00 +25°C° 1 mm 1 mps 683 mmHg 84%
19:00 +24°C° 0.1 mm 1 mps 683 mmHg 86%
20:00 +22°C° 0.1 mm 1 mps 683 mmHg 87%
21:00 +21°C° 0.1 mm 1 mps 684 mmHg 89%
22:00 +21°C° 0 mm 1 mps 684 mmHg 89%
23:00 +21°C° 0 mm 1 mps 684 mmHg 89%

26 January, Tuesday

Time Temperature Precipitation Wind Pressure Humidity
00:00 +20°C° 0 mm 1 mps 684 mmHg 89%
01:00 +20°C° 0 mm 1 mps 684 mmHg 90%
02:00 +20°C° 0 mm 1 mps 683 mmHg 91%
03:00 +20°C° 0 mm 1 mps 683 mmHg 91%
04:00 +19°C° 0 mm 1 mps 683 mmHg 92%
05:00 +18°C° 0 mm 2 mps 683 mmHg 93%
06:00 +18°C° 0 mm 2 mps 683 mmHg 94%
07:00 +20°C° 0 mm 2 mps 684 mmHg 87%
08:00 +23°C° 0 mm 2 mps 685 mmHg 81%
09:00 +25°C° 0 mm 3 mps 686 mmHg 75%
10:00 +26°C° 0.4 mm 2 mps 686 mmHg 72%
11:00 +27°C° 0.4 mm 2 mps 686 mmHg 69%
12:00 +28°C° 0.4 mm 2 mps 686 mmHg 67%
13:00 +28°C° 1.3 mm 2 mps 685 mmHg 68%
14:00 +28°C° 1.3 mm 2 mps 684 mmHg 69%
15:00 +28°C° 1.3 mm 2 mps 684 mmHg 70%
16:00 +27°C° 1.2 mm 1 mps 684 mmHg 75%
17:00 +27°C° 1.2 mm 1 mps 683 mmHg 79%
18:00 +24°C° 1.2 mm 0 mps 683 mmHg 83%
19:00 +25°C° 0.9 mm 1 mps 683 mmHg 85%
20:00 +23°C° 0.9 mm 1 mps 684 mmHg 86%
21:00 +22°C° 0.9 mm 1 mps 684 mmHg 87%
22:00 +22°C° 0 mm 1 mps 684 mmHg 88%
23:00 +22°C° 0 mm 1 mps 684 mmHg 89%

27 January, Wednesday

Time Temperature Precipitation Wind Pressure Humidity
00:00 +21°C° 0 mm 1 mps 684 mmHg 89%
01:00 +21°C° 0 mm 1 mps 684 mmHg 90%
02:00 +21°C° 0 mm 1 mps 683 mmHg 90%
03:00 +21°C° 0 mm 1 mps 683 mmHg 90%
04:00 +21°C° 0 mm 1 mps 683 mmHg 90%
05:00 +20°C° 0 mm 1 mps 683 mmHg 91%
06:00 +20°C° 0 mm 1 mps 684 mmHg 91%
07:00 +21°C° 0 mm 2 mps 684 mmHg 86%
08:00 +24°C° 0 mm 2 mps 685 mmHg 82%
09:00 +25°C° 0 mm 2 mps 685 mmHg 78%
10:00 +26°C° 0.9 mm 2 mps 685 mmHg 76%
11:00 +27°C° 0.9 mm 2 mps 685 mmHg 75%
12:00 +28°C° 0.9 mm 3 mps 685 mmHg 74%
13:00 +28°C° 0.5 mm 2 mps 685 mmHg 72%
14:00 +28°C° 0.5 mm 2 mps 684 mmHg 71%
15:00 +28°C° 0.5 mm 2 mps 684 mmHg 69%
16:00 +27°C° 1.1 mm 2 mps 684 mmHg 74%
17:00 +27°C° 1.1 mm 1 mps 683 mmHg 79%
18:00 +26°C° 1.1 mm 1 mps 683 mmHg 83%
19:00 +25°C° 0.7 mm 1 mps 683 mmHg 86%
20:00 +23°C° 0.7 mm 1 mps 683 mmHg 88%
21:00 +22°C° 0.7 mm 1 mps 683 mmHg 90%
22:00 +22°C° 0.4 mm 1 mps 683 mmHg 90%
23:00 +22°C° 0.4 mm 1 mps 683 mmHg 91%

28 January, Thursday

Time Temperature Precipitation Wind Pressure Humidity
00:00 +22°C° 0.4 mm 1 mps 683 mmHg 91%
01:00 +21°C° 0.5 mm 1 mps 683 mmHg 91%
02:00 +21°C° 0.5 mm 1 mps 683 mmHg 92%
03:00 +21°C° 0.5 mm 1 mps 682 mmHg 93%
04:00 +21°C° 0.2 mm 1 mps 682 mmHg 93%
05:00 +21°C° 0.2 mm 1 mps 683 mmHg 93%
06:00 +21°C° 0.2 mm 1 mps 683 mmHg 93%
07:00 +22°C° 0 mm 1 mps 683 mmHg 90%
08:00 +23°C° 0 mm 1 mps 684 mmHg 87%
09:00 +24°C° 0 mm 2 mps 684 mmHg 85%
10:00 +25°C° 0.4 mm 2 mps 684 mmHg 81%
11:00 +26°C° 0.4 mm 3 mps 684 mmHg 77%
12:00 +27°C° 0.4 mm 3 mps 684 mmHg 74%
13:00 +27°C° 0.5 mm 3 mps 683 mmHg 75%
14:00 +27°C° 0.5 mm 2 mps 683 mmHg 77%
15:00 +26°C° 0.5 mm 2 mps 682 mmHg 79%
Show more